KLM1353 EHAM-LKPR

Flight info

Callsign KLM1353
Flight time 1h 7m
Altitude 35000
Route ARNEM L620 HMM DCT NOMKA DCT SUVUT L620 PIKIB T620 LALUK DCT GOLOP
Aircraft B738/M-SDE2E3FGHIRWXY/LB1

Departure

Time 2026-05-04 08:55
Airport Amsterdam Airport Schiphol (EHAM)

Arrival

Time 2026-05-04 10:02
Airport Václav Havel Airport Prague (LKPR)
Time Latitude Longitude Altitude Speed Heading
2026-05-04 08:35 52.30345 4.76436 -2 ft 0 kts 238°
2026-05-04 08:46 52.30351 4.76451 -2 ft 4 kts 232°
2026-05-04 08:47 52.30370 4.76478 -2 ft 4 kts 199°
2026-05-04 08:47 52.30393 4.76479 -2 ft 3 kts 149°
2026-05-04 08:47 52.30395 4.76477 -2 ft 1 kts 148°
2026-05-04 08:50 52.30332 4.76594 -2 ft 13 kts 88°
2026-05-04 08:50 52.30313 4.76756 -2 ft 17 kts 111°
2026-05-04 08:51 52.30362 4.76953 -2 ft 21 kts 59°
2026-05-04 08:51 52.30438 4.77151 -2 ft 20 kts 58°
2026-05-04 08:51 52.30511 4.77343 -2 ft 20 kts 59°
2026-05-04 08:51 52.30586 4.77526 -2 ft 19 kts 49°
2026-05-04 08:52 52.30710 4.77593 -2 ft 21 kts
2026-05-04 08:52 52.30874 4.77608 -2 ft 26 kts
2026-05-04 08:52 52.31063 4.77625 -2 ft 27 kts
2026-05-04 08:52 52.31246 4.77642 -2 ft 26 kts
2026-05-04 08:53 52.31419 4.77647 -2 ft 24 kts 349°
2026-05-04 08:54 52.29594 4.77776 209 ft 166 kts 183°
2026-05-04 08:55 52.28413 4.77656 1010 ft 171 kts 183°
2026-05-04 08:55 52.27235 4.77953 1760 ft 177 kts 154°
2026-05-04 08:55 52.26235 4.79254 2313 ft 197 kts 130°
2026-05-04 08:55 52.25645 4.81336 2770 ft 214 kts 97°
2026-05-04 08:57 52.25119 5.01811 7366 ft 282 kts 93°
2026-05-04 09:01 52.22473 5.55768 16298 ft 384 kts 113°
2026-05-04 09:01 52.21470 5.59840 17020 ft 387 kts 115°
2026-05-04 09:01 52.20430 5.63933 17712 ft 392 kts 115°
2026-05-04 09:01 52.19393 5.68030 18372 ft 397 kts 115°
2026-05-04 09:02 52.18348 5.72210 18982 ft 400 kts 115°
2026-05-04 09:02 52.17309 5.76407 19600 ft 403 kts 115°
2026-05-04 09:02 52.16254 5.80695 20210 ft 407 kts 115°
2026-05-04 09:02 52.15212 5.84938 20801 ft 410 kts 116°
2026-05-04 09:03 52.14144 5.89284 21375 ft 414 kts 116°
2026-05-04 09:03 52.13066 5.93669 21946 ft 418 kts 116°
2026-05-04 09:03 52.11993 5.98023 22477 ft 421 kts 116°
2026-05-04 09:03 52.10891 6.02482 23027 ft 425 kts 117°
2026-05-04 09:04 52.09783 6.06979 23563 ft 429 kts 115°
2026-05-04 09:04 52.08993 6.11677 23976 ft 439 kts 105°
2026-05-04 09:04 52.08478 6.16624 24429 ft 444 kts 103°
2026-05-04 09:04 52.08028 6.21606 24849 ft 447 kts 102°
2026-05-04 09:05 52.07583 6.26568 25258 ft 450 kts 103°
2026-05-04 09:05 52.07106 6.31636 25671 ft 453 kts 103°
2026-05-04 09:05 52.06602 6.36725 26077 ft 456 kts 103°
2026-05-04 09:05 52.06081 6.41788 26466 ft 459 kts 104°
2026-05-04 09:06 52.05541 6.46936 26856 ft 462 kts 104°
2026-05-04 09:07 52.01377 6.83500 29401 ft 479 kts 109°
2026-05-04 09:08 52.00507 6.88725 29741 ft 481 kts 110°
2026-05-04 09:08 51.99619 6.93985 30051 ft 483 kts 109°
2026-05-04 09:08 51.98751 6.99283 30323 ft 486 kts 109°
2026-05-04 09:08 51.97897 7.04609 30647 ft 487 kts 109°
2026-05-04 09:09 51.97053 7.09868 31063 ft 485 kts 109°
2026-05-04 09:09 51.96164 7.15133 31531 ft 481 kts 110°
2026-05-04 09:09 51.95222 7.20284 31964 ft 478 kts 111°
2026-05-04 09:09 51.94245 7.25451 32327 ft 478 kts 111°
2026-05-04 09:10 51.93278 7.30536 32712 ft 477 kts 111°
2026-05-04 09:10 51.92304 7.35679 33135 ft 475 kts 111°
2026-05-04 09:10 51.91349 7.40761 33556 ft 473 kts 111°
2026-05-04 09:10 51.90391 7.45874 33970 ft 472 kts 111°
2026-05-04 09:11 51.89436 7.50978 34349 ft 471 kts 111°
2026-05-04 09:11 51.88492 7.56008 34648 ft 471 kts 111°
2026-05-04 09:11 51.87534 7.61100 34906 ft 471 kts 111°
2026-05-04 09:12 51.85626 7.71265 34990 ft 477 kts 110°
2026-05-04 09:14 51.80229 8.11268 34999 ft 472 kts 107°
2026-05-04 09:14 51.78812 8.21576 35006 ft 472 kts 107°
2026-05-04 09:15 51.77377 8.31915 34993 ft 473 kts 107°
2026-05-04 09:15 51.75925 8.42315 34994 ft 474 kts 107°
2026-05-04 09:17 51.69298 8.88947 34999 ft 475 kts 107°
2026-05-04 09:18 51.67803 8.99278 34997 ft 474 kts 108°
2026-05-04 09:18 51.66297 9.09608 34999 ft 474 kts 108°
2026-05-04 09:19 51.64785 9.19914 35005 ft 474 kts 108°
2026-05-04 09:19 51.63253 9.30284 35008 ft 474 kts 108°
2026-05-04 09:20 51.61731 9.40520 35012 ft 473 kts 108°
2026-05-04 09:20 51.60184 9.50852 35018 ft 473 kts 108°
2026-05-04 09:21 51.58645 9.61070 35018 ft 472 kts 108°
2026-05-04 09:21 51.57090 9.71329 35005 ft 472 kts 108°
2026-05-04 09:22 51.55529 9.81554 35011 ft 472 kts 108°
2026-05-04 09:22 51.53953 9.91823 35013 ft 472 kts 108°
2026-05-04 09:23 51.52374 10.02036 35011 ft 473 kts 108°
2026-05-04 09:23 51.50775 10.12321 35008 ft 473 kts 108°
2026-05-04 09:25 51.44329 10.53161 35005 ft 472 kts 108°
2026-05-04 09:26 51.42719 10.63339 35010 ft 472 kts 108°
2026-05-04 09:26 51.41099 10.73562 35002 ft 472 kts 108°
2026-05-04 09:27 51.39477 10.83734 35011 ft 472 kts 108°
2026-05-04 09:27 51.37844 10.93895 35003 ft 472 kts 108°
2026-05-04 09:28 51.36208 11.04013 35002 ft 471 kts 108°
2026-05-04 09:28 51.34553 11.14188 35010 ft 471 kts 108°
2026-05-04 09:29 51.32905 11.24262 35006 ft 470 kts 108°
2026-05-04 09:29 51.31239 11.34389 35008 ft 470 kts 108°
2026-05-04 09:30 51.29573 11.44459 35018 ft 469 kts 108°
2026-05-04 09:30 51.27858 11.54470 35012 ft 469 kts 109°
2026-05-04 09:31 51.26143 11.64528 35012 ft 468 kts 108°
2026-05-04 09:31 51.24484 11.74556 35012 ft 468 kts 108°
2026-05-04 09:32 51.22825 11.84487 35021 ft 468 kts 108°
2026-05-04 09:34 51.15953 12.24411 35021 ft 467 kts 109°
2026-05-04 09:34 51.14206 12.34351 35020 ft 467 kts 109°
2026-05-04 09:35 51.12449 12.44290 35019 ft 467 kts 109°
2026-05-04 09:35 51.10685 12.54232 35020 ft 467 kts 109°
2026-05-04 09:37 51.03488 12.93893 35016 ft 467 kts 109°
2026-05-04 09:38 51.01665 13.03790 35018 ft 467 kts 109°
2026-05-04 09:38 50.99845 13.13623 34943 ft 468 kts 109°
2026-05-04 09:39 50.99228 13.16938 34553 ft 473 kts 109°
2026-05-04 09:39 50.98294 13.21958 33959 ft 471 kts 109°
2026-05-04 09:39 50.97370 13.26916 33226 ft 471 kts 109°
2026-05-04 09:39 50.96131 13.33554 32346 ft 470 kts 109°
2026-05-04 09:40 50.95245 13.38529 31905 ft 464 kts 108°
2026-05-04 09:40 50.94676 13.41797 31561 ft 462 kts 108°
2026-05-04 09:40 50.93823 13.46671 31079 ft 458 kts 108°
2026-05-04 09:40 50.92955 13.51518 30608 ft 453 kts 109°
2026-05-04 09:41 50.92069 13.56247 30127 ft 449 kts 109°
2026-05-04 09:42 50.82104 13.84730 26684 ft 411 kts 133°
2026-05-04 09:43 50.80325 13.88251 26217 ft 409 kts 128°
2026-05-04 09:43 50.78850 13.92101 25759 ft 408 kts 122°
2026-05-04 09:43 50.77501 13.95989 25299 ft 406 kts 121°
2026-05-04 09:43 50.76150 13.99935 24844 ft 405 kts 121°
2026-05-04 09:44 50.74806 14.03845 24376 ft 403 kts 121°
2026-05-04 09:44 50.73473 14.07689 23932 ft 400 kts 121°
2026-05-04 09:44 50.72126 14.11538 23444 ft 398 kts 121°
2026-05-04 09:46 50.62878 14.37428 20174 ft 374 kts 130°
2026-05-04 09:46 50.60985 14.40202 19648 ft 367 kts 150°
2026-05-04 09:46 50.58737 14.41978 19235 ft 359 kts 163°
2026-05-04 09:47 50.56388 14.43135 18841 ft 354 kts 167°
2026-05-04 09:47 50.54017 14.44189 18405 ft 350 kts 167°
2026-05-04 09:49 50.38222 14.51200 13826 ft 322 kts 167°
2026-05-04 09:49 50.36091 14.52163 13382 ft 316 kts 167°
2026-05-04 09:49 50.33979 14.53116 12976 ft 318 kts 167°
2026-05-04 09:51 50.21316 14.58816 10607 ft 311 kts 166°
2026-05-04 09:51 50.19263 14.59739 10473 ft 301 kts 166°
2026-05-04 09:51 50.17292 14.60626 10327 ft 293 kts 167°
2026-05-04 09:51 50.15355 14.61495 10195 ft 284 kts 167°
2026-05-04 09:52 50.13484 14.62333 10054 ft 276 kts 167°
2026-05-04 09:52 50.11672 14.63145 9839 ft 272 kts 167°
2026-05-04 09:52 50.09833 14.63965 9526 ft 271 kts 167°
2026-05-04 09:52 50.08031 14.64770 9223 ft 270 kts 166°
2026-05-04 09:53 50.06220 14.65577 8921 ft 271 kts 167°
2026-05-04 09:53 50.04413 14.66386 8539 ft 273 kts 166°
2026-05-04 09:53 50.02575 14.67205 8038 ft 275 kts 166°
2026-05-04 09:53 50.00755 14.68047 7579 ft 275 kts 160°
2026-05-04 09:54 49.99200 14.69777 7153 ft 276 kts 131°
2026-05-04 09:54 49.98047 14.72088 7188 ft 264 kts 129°
2026-05-04 09:54 49.96802 14.74169 7192 ft 264 kts 149°
2026-05-04 09:54 49.95096 14.75134 7000 ft 269 kts 179°
2026-05-04 09:55 49.93272 14.74625 6655 ft 267 kts 208°
2026-05-04 09:55 49.91758 14.73070 6420 ft 259 kts 222°
2026-05-04 09:55 49.90739 14.70877 6265 ft 248 kts 252°
2026-05-04 09:55 49.90705 14.68282 6148 ft 238 kts 289°
2026-05-04 09:56 49.91402 14.66000 6114 ft 235 kts 297°
2026-05-04 09:56 49.92176 14.63777 5937 ft 233 kts 299°
2026-05-04 09:56 49.93032 14.61652 5820 ft 228 kts 303°
2026-05-04 09:56 49.93932 14.59671 5662 ft 225 kts 305°
2026-05-04 09:57 49.94858 14.57687 5469 ft 231 kts 305°
2026-05-04 09:57 49.95834 14.55670 5225 ft 231 kts 307°
2026-05-04 09:57 49.96788 14.53690 5134 ft 227 kts 306°
2026-05-04 09:57 49.97739 14.51711 4862 ft 232 kts 306°
2026-05-04 09:58 49.98704 14.49699 4589 ft 232 kts 306°
2026-05-04 09:58 49.99672 14.47683 4257 ft 232 kts 306°
2026-05-04 09:58 50.00622 14.45692 3965 ft 226 kts 306°
2026-05-04 10:00 50.06250 14.33951 2237 ft 158 kts 308°
2026-05-04 10:00 50.06904 14.32603 1991 ft 156 kts 308°
2026-05-04 10:02 50.10389 14.25660 1182 ft 15 kts 356°
2026-05-04 10:04 50.10512 14.25943 1186 ft 2 kts 74°
2026-05-04 10:04 50.10518 14.25988 1187 ft 9 kts 79°
2026-05-04 10:04 50.10538 14.26137 1187 ft 16 kts 81°
2026-05-04 10:04 50.10526 14.26245 1186 ft 5 kts 115°
2026-05-04 10:05 50.10538 14.26296 1185 ft 6 kts 39°
2026-05-04 10:05 50.10565 14.26324 1184 ft 1 kts 32°
2026-05-04 10:05 50.10568 14.26327 1184 ft 0 kts 32°